Cambridge, MD

9:38 PM EDT on July 23, 2017 (GMT -0400)
Cambridge-Dorchester

Weather History for KCGE - January, 2014

Change the Weather History Date:

Thursday, January 2, 2014

  Actual Average (KESN) Record (KESN)
Temperature  
Mean Temperature 37 °F -  
Max Temperature 42 °F 42 °F 64 °F (1952)
Min Temperature 32 °F 25 °F 7 °F (1968)
Degree Days  
Heating Degree Days 28    
Moisture  
Dew Point 33 °F    
Average Humidity 88    
Maximum Humidity 100    
Minimum Humidity 66    
Precipitation  
Precipitation 0.00 in - - ()
Sea Level Pressure  
Sea Level Pressure 29.85 in    
Wind  
Wind Speed 2 mph (ENE)    
Max Wind Speed 7 mph    
Max Gust Speed -    
Visibility 5 miles    
Events      
Averages and records for this station are not official NWS values.
T = Trace of Precipitation, MM = Missing Value Source: NWS Daily Summary

Daily Weather History Graph

Daily Weather History Graph

Search for Another Location

Airport or City:

Trip Planner

Search our weather history database for the weather conditions in past years. The results will help you decide how hot, cold, wet, or windy it might be!

Date:

Astronomy

Jan. 02, 2014 Rise Set
Actual Time 7:21 AM EST 4:54 PM EST
Civil Twilight 6:52 AM EST 5:24 PM EST
Nautical Twilight 6:19 AM EST 5:57 PM EST
Astronomical Twilight 5:46 AM EST 6:29 PM EST
Moon 8:02 AM EST (1/2) 6:47 PM EST (1/2)
Length of Visible Light 10h 32m
Length of Day
9h 32m
New Moon, 2% of the Moon is Illuminated
Jan 2
New Moon
Jan 7
First Quarter
Jan 15
Full
Jan 24
Last Quarter
Jan 30
New

Hourly Weather History & Observations

Time (EST) Temp. Windchill Dew Point Humidity Pressure Visibility Wind Dir Wind Speed Gust Speed Precip Events Conditions
12:05 AM 32.0 °F - 30.2 °F 93% 30.15 in 10.0 mi Calm Calm - N/A   Clear
12:26 AM 32.0 °F - 30.2 °F 93% 30.15 in 10.0 mi Calm Calm - N/A   Clear
12:46 AM 32.0 °F - 30.2 °F 93% 30.12 in 10.0 mi Calm Calm - N/A   Clear
1:06 AM 32.0 °F - 30.2 °F 93% 30.12 in 10.0 mi Calm Calm - N/A   Mostly Cloudy
1:26 AM 32.0 °F - 30.2 °F 93% 30.12 in 1.2 mi Calm Calm - N/A   Overcast
1:46 AM 32.0 °F - 30.2 °F 93% 30.11 in 2.5 mi Calm Calm - N/A   Overcast
2:06 AM 32.0 °F 28.7 °F 30.2 °F 93% 30.11 in 3.0 mi SSE 3.5 mph - N/A   Overcast
2:26 AM 32.0 °F - 30.2 °F 93% 30.10 in 0.2 mi Calm Calm - N/A   Overcast
2:46 AM 32.0 °F 28.7 °F 32.0 °F 100% 30.10 in 0.2 mi SE 3.5 mph - N/A   Overcast
3:06 AM 32.0 °F 28.7 °F 30.2 °F 93% 30.09 in 0.2 mi SE 3.5 mph - N/A   Overcast
3:26 AM 32.0 °F - 30.2 °F 93% 30.08 in 0.2 mi Calm Calm - N/A   Overcast
3:46 AM 32.0 °F - 30.2 °F 93% 30.06 in 0.2 mi Calm Calm - N/A   Overcast
4:06 AM 32.0 °F - 30.2 °F 93% 30.04 in 0.2 mi Calm Calm - N/A   Overcast
4:26 AM 32.0 °F - 30.2 °F 93% 30.03 in 0.2 mi Calm Calm - N/A   Overcast
4:46 AM 32.0 °F - 30.2 °F 93% 30.03 in 0.2 mi Calm Calm - N/A   Overcast
5:06 AM 32.0 °F - 30.2 °F 93% 30.03 in 0.5 mi Calm Calm - N/A   Overcast
5:26 AM 32.0 °F - 30.2 °F 93% 30.02 in 0.5 mi Calm Calm - N/A   Overcast
5:46 AM 32.0 °F - 30.2 °F 93% 30.01 in 0.5 mi Calm Calm - N/A   Overcast
6:06 AM 32.0 °F - 30.2 °F 93% 30.01 in 4.0 mi Calm Calm - N/A   Scattered Clouds
6:26 AM 32.0 °F - 30.2 °F 93% 30.00 in 5.0 mi Calm Calm - N/A   Clear
6:46 AM 32.0 °F - 30.2 °F 93% 30.00 in 5.0 mi Calm Calm - N/A   Clear
7:06 AM 32.0 °F 28.7 °F 30.2 °F 93% 29.99 in 5.0 mi SE 3.5 mph - N/A   Clear
7:26 AM 32.0 °F - 32.0 °F 100% 29.99 in 5.0 mi Calm Calm - N/A   Clear
7:46 AM 32.0 °F 28.7 °F 30.2 °F 93% 29.98 in 7.0 mi SE 3.5 mph - N/A   Clear
8:06 AM 32.0 °F 27.5 °F 32.0 °F 100% 29.97 in 5.0 mi SE 4.6 mph - N/A   Clear
8:26 AM 32.0 °F - 32.0 °F 100% 29.98 in 7.0 mi Calm Calm - N/A   Clear
8:46 AM 33.8 °F - 32.0 °F 93% 29.97 in 7.0 mi Calm Calm - N/A   Clear
9:07 AM 33.8 °F - 32.0 °F 93% 29.97 in 5.0 mi Calm Calm - N/A   Clear
9:27 AM 33.8 °F - 32.0 °F 93% 29.96 in 5.0 mi Calm Calm - N/A   Clear
9:47 AM 35.6 °F - 33.8 °F 93% 29.95 in 5.0 mi Calm Calm - N/A   Clear
10:07 AM 35.6 °F 32.8 °F 33.8 °F 93% 29.94 in 7.0 mi ESE 3.5 mph - N/A   Clear
10:27 AM 35.6 °F - 33.8 °F 93% 29.92 in 10.0 mi Calm Calm - N/A   Clear
10:47 AM 37.4 °F - 35.6 °F 93% 29.91 in 10.0 mi Calm Calm - N/A   Clear
11:07 AM 39.2 °F - 35.6 °F 87% 29.91 in 10.0 mi Calm Calm - N/A   Clear
11:27 AM 41.0 °F - 35.6 °F 81% 29.89 in 10.0 mi Calm Calm - N/A   Clear
11:47 AM 41.0 °F - 35.6 °F 81% 29.87 in 10.0 mi Calm Calm - N/A   Clear
12:07 PM 41.0 °F - 35.6 °F 81% 29.84 in 10.0 mi Calm Calm - N/A   Clear
12:27 PM 41.0 °F 39.0 °F 35.6 °F 81% 29.81 in 10.0 mi ENE 3.5 mph - N/A   Clear
12:47 PM 42.8 °F 41.1 °F 35.6 °F 76% 29.80 in 10.0 mi East 3.5 mph - N/A   Clear
1:07 PM 42.8 °F 40.1 °F 33.8 °F 70% 29.79 in 10.0 mi East 4.6 mph - N/A   Clear
1:27 PM 42.8 °F 39.3 °F 33.8 °F 70% 29.77 in 10.0 mi ENE 5.8 mph - N/A   Clear
1:47 PM 42.8 °F 40.1 °F 33.8 °F 70% 29.77 in 10.0 mi East 4.6 mph - N/A   Clear
2:07 PM 42.8 °F 41.1 °F 33.8 °F 70% 29.76 in 10.0 mi ESE 3.5 mph - N/A   Clear
2:27 PM 42.8 °F - 32.0 °F 66% 29.75 in 10.0 mi Calm Calm - N/A   Clear
2:47 PM 42.8 °F - 32.0 °F 66% 29.76 in 10.0 mi Calm Calm - N/A   Clear
3:07 PM 42.8 °F - 33.8 °F 70% 29.76 in 10.0 mi Calm Calm - N/A   Clear
3:27 PM 42.8 °F - 33.8 °F 70% 29.76 in 10.0 mi Calm Calm - N/A   Scattered Clouds
3:47 PM 42.8 °F 41.1 °F 35.6 °F 76% 29.75 in 10.0 mi NE 3.5 mph - N/A   Overcast
4:07 PM 42.8 °F 39.3 °F 35.6 °F 76% 29.74 in 10.0 mi East 5.8 mph - N/A   Overcast
4:27 PM 42.8 °F 39.3 °F 35.6 °F 76% 29.72 in 10.0 mi East 5.8 mph - N/A   Overcast
4:47 PM 42.8 °F 38.6 °F 35.6 °F 76% 29.70 in 10.0 mi East 6.9 mph - N/A   Mostly Cloudy
5:07 PM 41.0 °F 37.1 °F 35.6 °F 81% 29.68 in 7.0 mi East 5.8 mph - N/A   Mostly Cloudy
5:28 PM 41.0 °F 37.1 °F 35.6 °F 81% 29.67 in 7.0 mi ENE 5.8 mph - N/A   Mostly Cloudy
5:48 PM 41.0 °F 37.1 °F 37.4 °F 87% 29.67 in 5.0 mi ENE 5.8 mph - N/A   Overcast
6:08 PM 41.0 °F 37.1 °F 35.6 °F 81% 29.66 in 5.0 mi East 5.8 mph - N/A   Overcast
6:28 PM 39.2 °F 35.9 °F 35.6 °F 87% 29.66 in 5.0 mi ENE 4.6 mph - N/A   Overcast
6:48 PM 37.4 °F 32.8 °F 35.6 °F 93% 29.64 in 4.0 mi East 5.8 mph - N/A   Overcast
7:08 PM 37.4 °F 32.1 °F 35.6 °F 93% 29.63 in 4.0 mi ENE 6.9 mph - N/A   Overcast
7:28 PM 37.4 °F 34.9 °F 35.6 °F 93% 29.65 in 4.0 mi NE 3.5 mph - N/A   Overcast
7:48 PM 37.4 °F 33.8 °F 35.6 °F 93% 29.65 in 3.0 mi NNE 4.6 mph - N/A   Overcast
8:08 PM 37.4 °F 33.8 °F 35.6 °F 93% 29.65 in 3.0 mi NNE 4.6 mph - N/A   Overcast
8:28 PM 35.6 °F 30.7 °F 33.8 °F 93% 29.62 in 3.0 mi NE 5.8 mph - N/A   Overcast
8:48 PM 35.6 °F 32.8 °F 33.8 °F 93% 29.62 in 4.0 mi NNE 3.5 mph - N/A   Overcast
9:08 PM 35.6 °F 32.8 °F 33.8 °F 93% 29.62 in 1.8 mi NE 3.5 mph - N/A   Overcast
9:28 PM 33.8 °F 30.8 °F 32.0 °F 93% 29.60 in 1.2 mi NNE 3.5 mph - N/A   Overcast
9:48 PM 33.8 °F 30.8 °F 32.0 °F 93% 29.60 in 1.0 mi NE 3.5 mph - N/A   Overcast
10:08 PM 33.8 °F 30.8 °F 32.0 °F 93% 29.59 in 1.2 mi NNE 3.5 mph - N/A   Overcast
10:28 PM 33.8 °F - 32.0 °F 93% 29.59 in 1.0 mi Calm Calm - N/A   Overcast
10:47 PM 33.8 °F 28.6 °F 32.0 °F 93% 29.59 in 1.0 mi North 5.8 mph - N/A   Overcast
11:08 PM 33.8 °F 28.6 °F 32.0 °F 93% 29.57 in 1.0 mi North 5.8 mph - N/A   Overcast
11:28 PM 33.8 °F 30.8 °F 32.0 °F 93% 29.57 in 1.2 mi North 3.5 mph - N/A   Overcast
11:48 PM 33.8 °F 29.6 °F 32.0 °F 93% 29.55 in 1.2 mi North 4.6 mph - N/A   Overcast